Location: Newark
(25.4800°N, 85.7200°E)
Time: 21:03:11
(UTC+00:00)

Explorer 11/Cluster Stage 4 - Pass Details

Date: 22 August 2019
Orbit: 467 x 1259 km, 28.8° (Epoch: 13 October)

Event Time Altitude Azimuth Distance (km) Brightness Sun altitude
Rises 04:36:01 0° 247° (WSW) 4,072 10.0 61.9°
Reaches altitude 10° 04:38:49 10° 245° (WSW) 3,166 9.6 62.5°
Maximum altitude 04:46:58 77° 161° (SSE) 1,286 9.5 64.1°
Drops below altitude 10° 04:55:03 10° 77° (ENE) 3,140 10.1 65.7°
Sets 04:57:49 0° 76° (ENE) 4,038 10.4 66.3°
